{"data":{"norad_id":64605,"epoch":"2026-05-24T23:30:16.087104Z","epoch_age_seconds":70051,"freshness":"FRESH","line1":"1 64605U 25137M   26144.97935286  .00019556  00000+0  63995-3 0  9995","line2":"2 64605  53.1599 340.2828 0001321  61.5765 298.5369 15.31717549 52528","mean_motion":15.31717549,"eccentricity":0.0001321,"inclination_deg":53.1599,"raan_deg":340.2828,"arg_perigee_deg":61.5765,"mean_anomaly_deg":298.5369,"bstar":0.00063995,"rev_number":5252,"period_min":94.012110845118,"perigee_km":469.78295332865,"apogee_km":471.59241280992,"semimajor_km":6848.8246830693,"source":"CELESTRAK","updated_at":"2026-05-25T13:38:20.494921Z"}}